Location: Middleland (historical)
(38.0917°N, 99.7726°W)
Time: 00:34:17
(UTC+00:00)

Daily predictions for brighter satellites

Satellite Brightness Start Highest point End
(mag) Time Altitude Azimuth Time Altitude Azimuth Time Altitude Azimuth
NOSS 0 Rocket 4.5 00:06:47 10° N 00:12:29 36° ENE 00:18:07 10° SE
Timation 2 Rocket 4.2 00:10:20 10° SSW 00:16:21 77° WNW 00:22:39 10° NNE
SKYMED 2 4.0 00:17:39 10° NNE 00:21:47 42° E 00:25:54 10° S
Cosmos 468 4.5 00:18:29 10° NNW 00:23:43 76° ENE 00:28:56 10° SSE
Atlas Centaur 2 4.1 00:22:14 10° S 00:24:14 12° SSE 00:26:23 10° SE
Cosmos 2341 Rocket 4.4 00:19:32 10° SSE 00:25:28 42° E 00:31:24 10° NNE
SMAP 3.7 00:22:44 10° S 00:27:19 63° WSW 00:31:57 10° NNW
Cosmos 1300 2.6 00:24:01 10° N 00:27:49 64° E 00:31:35 10° SSE
USA 116 4.5 00:30:40 10° NE 00:33:10 21° E 00:35:36 10° SSE
Cosmos 1242 Rocket 3.5 00:29:58 10° SSW 00:33:21 48° WNW 00:36:47 10° N
Cosmos 1812 Rocket 3.6 00:29:05 10° N 00:33:31 58° E 00:37:54 10° SSE
YAOGAN 1 3.3 00:34:05 10° SE 00:37:50 30° ENE 00:41:36 10° N
Cosmos 1626 2.9 00:35:30 10° SSW 00:39:06 54° W 00:42:44 10° N
Cosmos 1340 Rocket 2.7 00:35:58 10° N 00:39:55 63° E 00:43:51 10° SSE
YAOGAN 6 2.5 00:36:52 10° SSE 00:40:32 69° ENE 00:44:11 10° N
Meteor 2-17 Rocket 4.4 00:34:29 10° S 00:40:35 71° E 00:46:43 10° NNE
SL-14 R/B 4.4 00:37:40 10° SSW 00:41:32 47° W 00:45:24 10° N
Ariane Rocket 4.4 00:40:35 10° E 00:43:34 16° ENE 00:46:35 10° NNE
Cosmos 1455 3.6 00:40:58 10° NNE 00:43:38 18° ENE 00:46:17 10° ESE
Cosmos 494 Rocket 3.9 00:41:22 10° N 00:46:26 59° ENE 00:51:28 10° SSE
Cosmos 724 4.3 00:41:27 10° SSW 00:47:27 83° ESE 00:53:23 10° NNE
ADEOS Rocket 4.1 00:41:48 10° NE 00:47:34 29° E 00:53:44 10° SSE
Cosmos-2242 3.7 00:44:45 10° NNE 00:48:36 31° ENE 00:52:23 10° SE
H-2A ROCKET BODY 3.6 00:43:07 10° WSW 00:53:41 34° SSW 00:57:08 10° SE
Cosmos 2237 Rocket 2.4 00:48:23 10° NNW 00:53:50 48° ENE 00:59:14 10° SE
Cosmos 1461 3.9 00:50:10 10° NW 00:54:27 54° WSW 00:58:52 10° SSE
Cosmos 2333 Rocket 3.0 00:49:33 10° NNW 00:55:07 56° WSW 01:00:37 10° S
Cosmos 2218 Rocket 4.3 00:52:16 10° SSE 00:58:13 46° E 01:04:16 10° NNE
Cosmos 1939 Rocket 3.3 00:55:31 10° SE 00:59:02 35° ENE 01:02:38 10° N
Meteor 1-21 Rocket 4.1 00:57:10 10° S 01:02:43 81° E 01:08:24 10° N
CSL-04 Rocket 3.7 00:58:21 10° SSE 01:03:41 57° ENE 01:09:06 10° N
Cosmos 1953 Rocket 3.6 01:03:46 10° S 01:08:07 55° E 01:12:31 10° NNE
Cosmos 1241 Rocket 4.4 01:01:55 10° NNW 01:08:07 72° ENE 01:14:22 10° SE
USA 32 4.2 01:03:52 10° S 01:09:05 78° W 01:14:20 10° N
COSMO-SKYMED 1 3.4 01:05:40 10° N 01:09:53 52° WNW 01:14:05 10° SSW
ISS -3.9 01:07:14 10° SW 01:10:34 76° SE 01:11:37 41° ENE
Cosmos 1758 Rocket 3.7 01:09:02 10° SSW 01:13:20 72° W 01:17:38 10° N
DMSP B5D1-3 4.5 01:09:31 10° NNE 01:14:34 63° ESE 01:19:37 10° S
SL-16 R/B 3.0 01:09:53 10° N 01:14:40 27° ENE 01:15:08 27° ENE
DELTA 2 R/B (1) 3.5 01:09:24 10° W 01:15:01 84° N 01:17:54 30° ENE
Cosmos 2219 3.7 01:10:06 10° SW 01:15:36 58° WNW 01:21:10 10° NNE
Okean-O 4.2 01:11:47 10° SSW 01:15:53 38° W 01:20:02 10° NNW
Cosmos 2082 3.7 01:13:38 10° S 01:19:05 55° ESE 01:22:27 23° NE
Cosmos 1703 3.2 01:18:46 10° S 01:22:38 59° E 01:24:05 35° NNE
Cosmos 1959 Rocket 4.3 01:18:08 10° S 01:24:18 74° E 01:30:25 10° N
CZ-4 R/B 2.2 01:23:04 10° S 01:26:57 52° W 01:30:58 10° NNW
Cosmos 2297 Rocket 2.6 01:24:52 10° SSW 01:30:27 63° WNW 01:35:51 11° NNE
Cosmos 2366 rocket 3.9 01:28:31 10° S 01:34:42 86° E 01:40:59 10° N
Cosmos 1980 4.0 01:30:18 10° NNW 01:35:58 70° WSW 01:41:35 10° SSE
ERBS 4.2 01:33:45 10° W 01:36:29 23° NW 01:37:16 21° NNW
Shenzhou-11 Module 3.5 01:36:24 10° WSW 01:38:02 32° W 01:38:02 32° W
Cosmos 2227 Rocket 2.8 01:37:07 10° SW 01:42:39 55° WNW 01:47:29 14° NNE
CZ-4C R/B 3.7 01:37:03 10° NW 01:44:26 56° WSW 01:52:34 10° SSE
SL-8 R/B 3.9 01:43:16 10° WSW 01:48:02 61° NNW 01:48:50 52° NNE
Cosmos 44 3.3 01:44:55 10° SW 01:49:33 67° WNW 01:50:34 50° N
CZ-2D R/B 4.4 01:49:47 10° S 01:53:25 43° W 01:57:05 10° NNW
Cosmos 1727 Rocket 3.8 01:58:06 10° N 02:04:19 89° E 02:10:29 10° S
Meteor 2-12 Rocket 4.3 02:03:56 10° S 02:09:59 89° W 02:12:17 41° N
Atlas Centaur 2 3.3 02:07:22 10° SW 02:11:46 32° S 02:11:46 32° S
Cosmos 1455 4.4 02:16:06 10° NW 02:19:13 24° W 02:22:18 10° SW
Ariane Rocket 3.4 02:17:02 10° S 02:22:00 59° WSW 02:27:01 10° NNW
ADEOS Rocket 4.1 02:26:49 10° N 02:33:05 48° WNW 02:40:00 10° SW
FALCON 9 R/B 3.6 02:26:52 10° SW 02:38:39 41° S 02:38:39 41° S
SL-16 R/B 3.7 02:53:37 10° NW 02:57:07 32° WNW 02:57:07 32° WNW
CZ-3 R/B 4.3 09:46:37 56° S 09:48:16 56° S 09:59:43 10° E
Cosmos 2297 Rocket 4.4 10:29:59 18° SE 10:29:59 18° SE 10:31:26 10° SE
CZ-3A R/B 4.4 10:29:40 31° SSE 10:30:31 32° SSE 10:48:35 10° E
Cosmos 2227 Rocket 4.0 10:41:27 24° SE 10:41:27 24° SE 10:43:46 10° SE
ATLAS 2AS CENTAUR R/B 4.3 11:02:02 10° S 11:09:05 38° ESE 11:16:18 10° NE
Cosmos 1980 Rocket 2.7 11:19:29 26° S 11:22:40 59° ESE 11:28:15 10° NNE
ALOS 3.7 11:21:34 10° NNE 11:25:54 37° E 11:30:13 10° SSE
Nadezhda 1 Rocket 3.9 11:20:54 10° S 11:26:59 82° E 11:33:04 10° N
Cosmos 1697 Rocket 3.4 11:32:25 39° N 11:32:25 39° N 11:36:02 10° NNE
Cosmos 1953 3.5 11:26:39 10° SSE 11:30:28 42° E 11:34:20 10° NNE
Okean O Rocket 4.1 11:28:37 10° NE 11:32:05 22° E 11:35:31 10° SE
Cosmos 1538 Rocket 3.9 11:34:56 57° SSW 11:36:03 87° ESE 11:41:24 10° NNE
COSMOS 2455 3.0 11:32:30 19° SSW 11:36:49 72° ESE 11:42:49 10° NNE
STARLINK-62 4.5 11:38:53 45° ENE 11:38:53 45° ENE 11:41:45 10° NE
BREEZE-M DEB (TANK) 3.8 11:38:45 36° WNW 11:43:13 75° SW 11:47:18 10° SE
SEDSat Delta rocket 4.4 11:49:06 37° SW 11:50:36 44° S 11:55:56 10° ESE
BREEZE-M DEB (TANK) 3.9 11:52:09 24° ESE 11:52:09 24° ESE 11:53:05 10° SE
STARLINK-33 4.3 11:53:30 38° NNE 11:53:30 38° NNE 11:55:54 10° NE
STARLINK-66 4.2 11:56:59 38° NNE 11:56:59 38° NNE 11:59:27 10° NE
